Terminal Aerodrome Forecast
Issued by NWS Charleston, WV

Current Version | Previous Version | Text Only | Print | Product List | Glossary Off
Versions: 1 2 3 4 5 6 7 8 9 10 11 12 13 14 15 16 17 18 19 20 21 22 23 24

000
FTUS41 KRLX 222323
TAFBKW
TAF
KBKW 222323Z 2300/2324 34005KT P6SM SCT200
     FM230800 VRB03KT P6SM BKN090
     FM231300 11007KT P6SM BKN045
     FM231600 11008KT P6SM BKN030
     FM231900 11008KT P6SM -SHRA BKN015=

USA.gov is the U.S. government's official web portal to all federal, state and local government web resources and services.